Tracking 27405 objects as of 2-Jun-2023
HD Live streaming from Space Station
objects crossing your sky now

STARLINK-1638

Track STARLINK-1638 now!
10-day predictions
STARLINK-1638 is classified as:


NORAD ID: 46134
Int'l Code: 2020-057T
Perigee: 553.7 km
Apogee: 555.1 km
Inclination: 53.1 °
Period: 95.6 minutes
Semi major axis: 6925 km
RCS: Unknown
Launch date: August 18, 2020
Source: United States (US)
Launch site: AIR FORCE EASTERN TEST RANGE (AFETR)
Your satellite tracking list
Your tracking list is empty




NASA's NSSDC Master Catalog

Two Line Element Set (TLE):
1 46134U 20057T   23152.28614304  .00000794  00000-0  72212-4 0  9991
2 46134  53.0536 141.4632 0001024  92.4282 267.6824 15.06393700154039
Source of the keplerian elements: AFSPC